Weather History for Westminster, MD

Change the Weather History Date:

Friday, May 24, 2013

  Actual Average (KTHV) Record (KTHV)
Temperature  
Mean Temperature 56 °F -  
Max Temperature 64 °F 78 °F 89 °F (1970)
Min Temperature 46 °F 52 °F 37 °F (2006)
Degree Days  
Heating Degree Days 9    
Growing Degree Days 6 (Base 50)    
Moisture  
Dew Point 51 °F    
Average Humidity 85    
Maximum Humidity 100    
Minimum Humidity 66    
Precipitation  
Precipitation 0.02 in - - ()
Sea Level Pressure  
Sea Level Pressure 29.94 in    
Wind  
Wind Speed 9 mph (NW)    
Max Wind Speed 18 mph    
Max Gust Speed 29 mph    
Visibility 9 miles    
Events Rain    
Averages and records for this station are not official NWS values.
T = Trace of Precipitation, MM = Missing Value Source: NWS Daily Summary

Daily Weather History Graph

Daily Weather History Graph

Search for Another Location

Airport:

Trip Planner

Search our weather history database for the weather conditions in past years. The results will help you decide how hot, cold, wet, or windy it might be!

Date:

Astronomy

May. 24, 2013 Rise Set
Actual Time 5:46 AM EDT 8:23 PM EDT
Civil Twilight 5:15 AM EDT 8:55 PM EDT
Nautical Twilight 4:36 AM EDT 9:34 PM EDT
Astronomical Twilight 3:52 AM EDT 10:18 PM EDT
Moon 8:03 PM EDT (5/24) 5:16 AM EDT (5/24)
Length of Visible Light 15h 39m
Length of Day
14h 37m
Full, 100% of the Moon is Illuminated
May 24
Full
May 25
Full
May 31
Last Quarter
Jun 8
New
Jun 16
First Quarter

Hourly Weather History & Observations

Time (EDT) Temp. Windchill Dew Point Humidity Pressure Visibility Wind Dir Wind Speed Gust Speed Precip Events Conditions
12:05 AM 64.4 °F - 62.6 °F 94% 29.82 in 4.0 mi SW 5.8 mph - N/A Rain Light Rain
12:25 AM 64.4 °F - 62.6 °F 94% 29.82 in 5.0 mi SW 5.8 mph - 0.01 in Rain Light Rain
12:45 AM 64.4 °F - 62.6 °F 94% 29.81 in 5.0 mi WSW 4.6 mph - 0.02 in Rain Light Rain
1:05 AM 64.4 °F - 62.6 °F 94% 29.80 in 4.0 mi SW 3.5 mph - N/A Rain Light Rain
1:25 AM 64.4 °F - 62.6 °F 94% 29.78 in 4.0 mi West 8.1 mph - 0.01 in Rain Light Rain
1:45 AM 64.4 °F - 62.6 °F 94% 29.77 in 7.0 mi West 5.8 mph - 0.01 in   Mostly Cloudy
2:05 AM 64.4 °F - 62.6 °F 94% 29.76 in 7.0 mi West 6.9 mph - N/A   Scattered Clouds
2:25 AM 64.4 °F - 62.6 °F 94% 29.76 in 5.0 mi West 9.2 mph - N/A   Clear
2:45 AM 62.6 °F - 62.6 °F 100% 29.76 in 5.0 mi West 6.9 mph - N/A   Clear
3:05 AM 62.6 °F - 62.6 °F 100% 29.76 in 7.0 mi West 8.1 mph - N/A   Clear
3:25 AM 62.6 °F - 62.6 °F 100% 29.76 in 5.0 mi WNW 6.9 mph - N/A   Scattered Clouds
3:45 AM 62.6 °F - 62.6 °F 100% 29.76 in 4.0 mi WNW 8.1 mph - N/A   Mostly Cloudy
4:05 AM 62.6 °F - 60.8 °F 94% 29.76 in 5.0 mi West 3.5 mph - N/A   Mostly Cloudy
4:25 AM 62.6 °F - 62.6 °F 100% 29.77 in 5.0 mi West 4.6 mph - N/A   Light Drizzle
4:45 AM 62.6 °F - 62.6 °F 100% 29.77 in 7.0 mi West 5.8 mph - N/A   Scattered Clouds
5:05 AM 62.6 °F - 62.6 °F 100% 29.78 in 10.0 mi WNW 6.9 mph - N/A   Mostly Cloudy
5:25 AM 62.6 °F - 62.6 °F 100% 29.78 in 10.0 mi WNW 6.9 mph - N/A   Overcast
5:45 AM 62.6 °F - 62.6 °F 100% 29.79 in 10.0 mi WNW 5.8 mph - N/A   Overcast
6:05 AM 62.6 °F - 60.8 °F 94% 29.80 in 10.0 mi WNW 4.6 mph - N/A   Overcast
6:25 AM 62.6 °F - 60.8 °F 94% 29.82 in 10.0 mi West 12.7 mph 16.1 mph N/A   Overcast
6:45 AM 60.8 °F - 60.8 °F 100% 29.83 in 5.0 mi WNW 9.2 mph - N/A   Drizzle
7:05 AM 57.2 °F - 57.2 °F 100% 29.85 in 4.0 mi WNW 12.7 mph 21.9 mph N/A   Drizzle
7:25 AM 57.2 °F - 55.4 °F 94% 29.86 in 7.0 mi NW 11.5 mph 18.4 mph N/A Rain Rain
7:45 AM 55.4 °F - 53.6 °F 94% 29.87 in 10.0 mi WNW 11.5 mph 19.6 mph N/A Rain Rain
8:05 AM 55.4 °F - 53.6 °F 94% 29.89 in 10.0 mi WNW 16.1 mph 21.9 mph N/A Rain Light Rain
8:25 AM 55.4 °F - 53.6 °F 94% 29.90 in 10.0 mi WNW 15.0 mph 24.2 mph N/A   Drizzle
8:45 AM 53.6 °F - 51.8 °F 94% 29.91 in 10.0 mi WNW 10.4 mph 24.2 mph N/A Rain Rain
9:05 AM 53.6 °F - 51.8 °F 94% 29.92 in 10.0 mi NW 12.7 mph 18.4 mph N/A Rain Light Rain
9:25 AM 51.8 °F - 51.8 °F 100% 29.92 in 10.0 mi NW 6.9 mph 18.4 mph N/A Rain Light Rain
9:45 AM 51.8 °F - 50.0 °F 94% 29.93 in 10.0 mi NW 13.8 mph 18.4 mph N/A Rain Light Rain
10:05 AM 51.8 °F - 51.8 °F 100% 29.93 in 10.0 mi NW 12.7 mph 19.6 mph N/A   Light Drizzle
10:25 AM 51.8 °F - 51.8 °F 100% 29.93 in 10.0 mi NW 15.0 mph 23.0 mph 0.01 in Rain Light Rain
10:45 AM 51.8 °F - 48.2 °F 88% 29.95 in 10.0 mi NW 15.0 mph 24.2 mph 0.01 in Rain Light Rain
11:05 AM 51.8 °F - 48.2 °F 88% 29.95 in 10.0 mi NW 15.0 mph 23.0 mph N/A   Overcast
11:25 AM 51.8 °F - 48.2 °F 88% 29.96 in 10.0 mi NNW 9.2 mph 20.7 mph N/A   Overcast
11:45 AM 51.8 °F - 48.2 °F 88% 29.96 in 10.0 mi NW 12.7 mph 27.6 mph N/A   Overcast
12:05 PM 51.8 °F - 48.2 °F 88% 29.96 in 10.0 mi NW 10.4 mph 17.3 mph N/A   Overcast
12:25 PM 51.8 °F - 48.2 °F 88% 29.97 in 10.0 mi NW 18.4 mph 26.5 mph N/A   Overcast
12:45 PM 51.8 °F - 46.4 °F 82% 29.97 in 10.0 mi NW 16.1 mph 28.8 mph N/A   Overcast
1:05 PM 51.8 °F - 46.4 °F 82% 29.98 in 10.0 mi NNW 13.8 mph 21.9 mph N/A   Overcast
1:25 PM 51.8 °F - 46.4 °F 82% 29.99 in 10.0 mi NNW 12.7 mph 20.7 mph N/A   Overcast
1:45 PM 53.6 °F - 46.4 °F 77% 29.98 in 10.0 mi NNW 13.8 mph 24.2 mph N/A   Overcast
2:05 PM 53.6 °F - 44.6 °F 72% 29.99 in 10.0 mi NNW 12.7 mph 23.0 mph N/A   Overcast
2:25 PM 53.6 °F - 44.6 °F 72% 29.99 in 10.0 mi NW 13.8 mph 20.7 mph N/A   Overcast
2:45 PM 53.6 °F - 44.6 °F 72% 29.99 in 10.0 mi NW 13.8 mph 20.7 mph N/A   Overcast
3:05 PM 53.6 °F - 44.6 °F 72% 30.00 in 10.0 mi NNW 15.0 mph 21.9 mph N/A   Overcast
3:25 PM 53.6 °F - 46.4 °F 77% 30.01 in 10.0 mi NW 13.8 mph 21.9 mph N/A   Overcast
3:45 PM 53.6 °F - 46.4 °F 77% 30.00 in 10.0 mi NW 13.8 mph 23.0 mph N/A   Overcast
4:05 PM 53.6 °F - 44.6 °F 72% 30.00 in 10.0 mi NW 11.5 mph 20.7 mph N/A   Overcast
4:25 PM 55.4 °F - 46.4 °F 72% 30.01 in 10.0 mi NNW 10.4 mph 17.3 mph N/A   Overcast
4:45 PM 55.4 °F - 46.4 °F 72% 30.01 in 10.0 mi NW 13.8 mph 24.2 mph N/A   Overcast
5:05 PM 53.6 °F - 46.4 °F 77% 30.02 in 10.0 mi WNW 12.7 mph 19.6 mph N/A   Overcast
5:25 PM 53.6 °F - 44.6 °F 72% 30.03 in 10.0 mi NW 17.3 mph 25.3 mph N/A   Overcast
5:45 PM 53.6 °F - 44.6 °F 72% 30.03 in 10.0 mi NW 17.3 mph 25.3 mph N/A   Overcast
6:05 PM 51.8 °F - 44.6 °F 76% 30.03 in 10.0 mi NW 13.8 mph 24.2 mph N/A   Overcast
6:25 PM 51.8 °F - 44.6 °F 76% 30.04 in 10.0 mi NW 12.7 mph 27.6 mph N/A   Overcast
6:45 PM 51.8 °F - 44.6 °F 76% 30.05 in 10.0 mi NW 16.1 mph 20.7 mph N/A   Overcast
7:05 PM 51.8 °F - 42.8 °F 71% 30.06 in 10.0 mi NW 17.3 mph 24.2 mph N/A   Overcast
7:25 PM 51.8 °F - 42.8 °F 71% 30.07 in 10.0 mi NW 13.8 mph 24.2 mph N/A   Overcast
7:45 PM 51.8 °F - 42.8 °F 71% 30.08 in 10.0 mi NW 12.7 mph 23.0 mph N/A   Overcast
8:05 PM 50.0 °F - 42.8 °F 76% 30.09 in 10.0 mi NW 15.0 mph 23.0 mph N/A   Overcast
8:25 PM 50.0 °F - 41.0 °F 71% 30.10 in 10.0 mi NW 16.1 mph 24.2 mph N/A   Overcast
8:45 PM 50.0 °F - 39.2 °F 66% 30.11 in 10.0 mi NW 9.2 mph 27.6 mph N/A   Overcast
9:05 PM 50.0 °F - 39.2 °F 66% 30.12 in 10.0 mi NW 13.8 mph 20.7 mph N/A   Overcast
9:25 PM 48.2 °F - 39.2 °F 71% 30.13 in 10.0 mi NW 11.5 mph 19.6 mph N/A   Overcast
9:45 PM 48.2 °F - 39.2 °F 71% 30.13 in 10.0 mi NNW 6.9 mph 20.7 mph N/A   Overcast
10:05 PM 48.2 °F - 39.2 °F 71% 30.14 in 10.0 mi NNW 11.5 mph 21.9 mph N/A   Overcast
10:25 PM 48.2 °F - 37.4 °F 66% 30.15 in 10.0 mi NW 13.8 mph 23.0 mph N/A   Overcast
10:45 PM 48.2 °F - 37.4 °F 66% 30.15 in 10.0 mi NNW 8.1 mph 19.6 mph N/A   Overcast
11:05 PM 48.2 °F - 37.4 °F 66% 30.15 in 10.0 mi NNW 11.5 mph 20.7 mph N/A   Overcast
11:25 PM 48.2 °F - 37.4 °F 66% 30.15 in 10.0 mi NW 10.4 mph 18.4 mph N/A   Mostly Cloudy
11:45 PM 46.4 °F 42.4 °F 37.4 °F 71% 30.14 in 10.0 mi NW 8.1 mph 17.3 mph N/A   Scattered Clouds